Location: Newark
(4.2170°N, 12.9170°E)
Time: 19:38:15
(UTC+00:00)

N. Korean satellite - Pass Details

Date: 21 November 2019
Orbit: 455 x 507 km, 97.2° (Epoch: 13 December)

Event Time Altitude Azimuth Distance (km) Brightness Sun altitude
Rises 17:16:29 0° 197° (SSW) 2,522 10.8 -6.7°
Reaches altitude 10° 17:19:03 10° 218° (SW) 1,653 10.3 -7.3°
Maximum altitude 17:21:26 17° 260° (W) 1,280 10.1 -7.8°
Drops below altitude 10° 17:23:51 10° 302° (WNW) 1,669 9.8 -8.4°
Sets 17:26:29 0° 323° (NW) 2,559 10.5 -9.0°
